FW1422 Weather Reports


Display with metric or nautical units.
time (UTC)temp
F
wind
direction
speed
MPH
gust
MPH
rain 1hr
in
rain 24hr
in
rain mn
in
humidity
%
barometer
mb
20260505151509 51 164 14.0 18.0 0.17 0.28 0.28 92 1008.7
20260505124547 0 0.0 0.0 0.00 0.11 0.11 1007.8
20260505123051 0 0.0 0.0 0.00 0.11 0.11 1007.9
20260505121537 0 0.0 0.0 0.00 0.11 0.11 1007.7
20260505120046 0 0.0 0.0 0.00 0.11 0.11 1007.1
20260505114531 0 0.0 0.0 0.00 0.11 0.11 1006.9
20260505113025 0 0.0 0.0 0.00 0.11 0.11 1006.7
20260505111530 0 0.0 0.0 0.00 0.11 0.11 1006.4
20260505101502 0 0.0 0.0 0.00 0.11 0.11 1005.4
20260505100059 0 0.0 0.0 0.01 0.11 0.11 1006.3
20260505094555 0 0.0 0.0 0.03 0.16 0.11 1006.6
20260505093051 0 0.0 0.0 0.04 0.16 0.11 1006.4
20260505091554 57 224 5.0 9.0 0.11 0.16 0.11 92 1006.6
20260505090045 57 160 3.0 5.0 0.10 0.15 0.10 92 1006.8
20260505084553 58 162 0.0 0.0 0.08 0.21 0.08 90 1007.1
20260505083054 59 158 2.0 14.0 0.07 0.20 0.07 85 1007.6
20260505081536 62 159 11.0 16.0 0.00 0.13 0.00 74 1007.7
20260505080031 64 160 5.0 10.0 0.00 0.13 0.00 68 1006.7
20260505074533 65 160 2.0 11.0 0.00 0.20 0.00 66 1006.7
20260505073026 66 161 4.0 13.0 0.00 0.20 0.00 68 1007.1
20260505071524 67 153 6.0 13.0 0.00 0.20 0.00 64 1006.0
20260505070021 68 150 8.0 12.0 0.00 0.20 0.00 63 1005.7
20260505064522 68 149 11.0 16.0 0.00 0.20 0.00 63 1005.6
20260505063015 68 154 11.0 18.0 0.00 0.20 0.00 62 1004.9
20260505061513 68 155 10.0 22.0 0.00 0.20 0.00 62 1004.8
20260505060011 68 150 14.0 23.0 0.00 0.20 0.00 61 1004.6
20260505054517 69 148 14.0 22.0 0.00 0.20 0.00 60 1004.4
20260505053006 69 154 12.0 23.0 0.00 0.20 0.00 60 1004.5
20260505051502 69 153 13.0 21.0 0.00 0.20 0.00 59 1004.4
20260505050109 69 151 15.0 21.0 0.00 0.20 0.00 59 1004.0
20260505041607 69 150 18.0 25.0 0.00 0.20 0.20 56 1004.1
20260505040105 70 155 13.0 25.0 0.00 0.20 0.20 56 1004.3
20260505034611 70 154 13.0 20.0 0.00 0.20 0.20 55 1004.5
20260505033057 70 158 12.0 20.0 0.00 0.20 0.20 54 1004.6
20260505031558 71 154 13.0 22.0 0.00 0.20 0.20 53 1004.6
20260505030104 71 155 15.0 27.0 0.00 0.20 0.20 53 1004.6
20260505024609 70 155 15.0 21.0 0.00 0.20 0.20 54 1004.5
20260505023054 70 156 13.0 21.0 0.00 0.20 0.20 56 1004.5
20260505021553 71 155 15.0 24.0 0.00 0.20 0.20 53 1004.4
20260505020105 71 159 15.0 24.0 0.00 0.20 0.20 54 1004.1
20260505014552 72 150 14.0 23.0 0.00 0.20 0.20 51 1004.7
20260505013051 72 150 18.0 25.0 0.00 0.20 0.20 51 1004.1
20260505011555 72 153 11.0 21.0 0.00 0.20 0.20 53 1004.0
20260505010107 72 150 7.0 14.0 0.00 0.20 0.20 51 1004.0
20260505004602 72 153 11.0 16.0 0.00 0.20 0.20 50 1003.6
20260505003052 73 154 12.0 20.0 0.00 0.20 0.20 49 1003.5
20260505001550 73 155 8.0 18.0 0.00 0.20 0.20 49 1003.2
20260505000047 74 155 11.0 17.0 0.00 0.20 0.20 47 1003.1
20260504234545 75 156 14.0 22.0 0.00 0.20 0.20 45 1003.2
20260504233047 75 153 10.0 21.0 0.00 0.20 0.20 45 1003.2
20260504231613 74 155 9.0 17.0 0.00 0.20 0.20 46 1003.3
20260504230043 75 153 12.0 23.0 0.00 0.20 0.20 44 1003.2
20260504224543 75 155 13.0 26.0 0.00 0.20 0.20 44 1002.9
20260504223040 75 155 16.0 24.0 0.00 0.20 0.20 47 1003.0
20260504221552 74 153 16.0 22.0 0.00 0.20 0.20 48 1003.8
20260504220036 74 155 15.0 28.0 0.00 0.20 0.20 48 1003.9
20260504214536 74 154 17.0 33.0 0.00 0.20 0.20 48 1003.9
20260504213040 73 153 18.0 31.0 0.00 0.20 0.20 47 1003.9
20260504211534 72 153 14.0 21.0 0.00 0.20 0.20 53 1004.1
20260504210028 72 154 13.0 19.0 0.00 0.20 0.20 55 1005.1
20260504204528 71 155 11.0 14.0 0.00 0.20 0.20 58 1005.7
20260504203025 71 150 9.0 14.0 0.00 0.20 0.20 62 1005.7
20260504201527 71 155 7.0 10.0 0.00 0.20 0.20 61 1005.8
20260504200026 71 148 0.0 0.0 0.00 0.20 0.20 63 1007.3
20260504194524 71 149 0.0 0.0 0.00 0.20 0.20 63 1007.6
20260504193022 72 148 0.0 11.0 0.00 0.20 0.20 59 1007.8
20260504191525 72 150 8.0 12.0 0.00 0.20 0.20 58 1007.3
20260504190021 73 155 8.0 16.0 0.00 0.20 0.20 57 1006.1
20260504184537 73 155 14.0 23.0 0.00 0.20 0.20 57 1005.8
20260504183018 74 156 14.0 26.0 0.00 0.20 0.20 57 1006.0
20260504181518 75 154 20.0 29.0 0.00 0.20 0.20 55 1006.2
20260504180014 75 157 16.0 25.0 0.00 0.20 0.20 56 1006.4
20260504174510 74 153 17.0 30.0 0.00 0.20 0.20 56 1006.6
20260504173014 74 156 19.0 26.0 0.00 0.20 0.20 55 1006.9
20260504171503 73 155 14.0 22.0 0.00 0.20 0.20 57 1007.1